TimeCST,TemperatureF,Dew PointF,Humidity,Sea Level PressureIn,VisibilityMPH,Wind Direction,Wind SpeedMPH,Gust SpeedMPH,PrecipitationIn,Events,Conditions,WindDirDegrees,DateUTC
12:55 AM,36.0,26.2,68,29.99,10.0,WSW,11.5,-,N/A,,Partly Cloudy,240,2011-12-25 06:55:00
1:55 AM,36.1,26.1,67,29.97,10.0,WSW,10.4,-,N/A,,Clear,240,2011-12-25 07:55:00
2:55 AM,35.6,25.0,65,29.96,10.0,WSW,12.7,-,N/A,,Clear,250,2011-12-25 08:55:00
3:55 AM,35.8,24.6,64,29.97,10.0,West,16.1,-,N/A,,Clear,270,2011-12-25 09:55:00
4:55 AM,35.1,24.3,65,29.98,10.0,West,15.0,-,N/A,,Clear,270,2011-12-25 10:55:00
5:55 AM,34.2,24.3,67,30.01,10.0,West,16.1,-,N/A,,Clear,280,2011-12-25 11:55:00
6:55 AM,34.2,24.8,69,30.03,10.0,WNW,16.1,24.2,N/A,,Clear,290,2011-12-25 12:55:00
7:55 AM,33.6,26.1,74,30.06,10.0,WNW,13.8,-,N/A,,Clear,290,2011-12-25 13:55:00
8:55 AM,35.8,26.8,70,30.09,10.0,West,13.8,-,N/A,,Clear,280,2011-12-25 14:55:00
9:55 AM,38.3,28.0,67,30.12,10.0,WNW,18.4,33.4,N/A,,Clear,290,2011-12-25 15:55:00
10:55 AM,38.8,28.2,66,30.14,10.0,WNW,20.7,26.5,N/A,,Overcast,300,2011-12-25 16:55:00
11:55 AM,38.8,27.3,63,30.15,10.0,WNW,13.8,28.8,N/A,,Overcast,300,2011-12-25 17:55:00
12:55 PM,38.8,27.0,62,30.17,10.0,WNW,18.4,25.3,N/A,,Overcast,300,2011-12-25 18:55:00
1:55 PM,40.1,27.3,60,30.19,10.0,NW,16.1,-,N/A,,Overcast,310,2011-12-25 19:55:00
2:55 PM,38.1,27.1,65,30.22,10.0,NW,17.3,-,N/A,,Overcast,310,2011-12-25 20:55:00
3:55 PM,37.2,27.0,66,30.24,10.0,NW,11.5,19.6,N/A,,Overcast,320,2011-12-25 21:55:00
4:55 PM,34.0,26.4,74,30.27,10.0,NW,5.8,-,N/A,,Mostly Cloudy,310,2011-12-25 22:55:00
5:55 PM,28.9,25.0,85,30.29,10.0,WNW,6.9,-,N/A,,Partly Cloudy,300,2011-12-25 23:55:00
6:55 PM,26.2,25.5,97,30.29,10.0,WSW,3.5,-,N/A,,Clear,240,2011-12-26 00:55:00
7:55 PM,21.6,21.2,99,30.30,10.0,West,4.6,-,N/A,,Clear,260,2011-12-26 01:55:00
8:55 PM,21.7,21.6,99,30.29,10.0,SE,3.5,-,N/A,,Clear,130,2011-12-26 02:55:00
9:55 PM,20.7,20.5,99,30.27,10.0,Calm,Calm,-,N/A,,Clear,0,2011-12-26 03:55:00
10:55 PM,19.2,19.0,99,30.28,10.0,Calm,Calm,-,N/A,,Clear,0,2011-12-26 04:55:00
11:55 PM,21.7,21.7,100,30.26,10.0,SSE,4.6,-,N/A,,Clear,160,2011-12-26 05:55:00